DW5092 Weather Reports


time (UTC)temp
C
wind
direction
speed
KPH
gust
KPH
rain 1hr
cm
rain 24hr
cm
rain mn
cm
humidity
%
barometer
mb
20260502161156 22 42 3.2 11.3 0.00 0.00 0.00 27 1016.4
20260502151156 17 0 0.0 0.0 0.00 0.00 0.00 41 1016.5
20260502122356 0 0 0.0 0.0 0.00 0.00 0.00 85 1016.5
20260502114755 0 0 0.0 0.0 0.00 0.00 0.00 84 1016.5
20260502113556 0 0 0.0 0.0 0.00 0.00 0.00 82 1016.4
20260502112356 0 0 0.0 0.0 0.00 0.00 0.00 82 1016.5
20260502111155 0 0 0.0 0.0 0.00 0.00 0.00 82 1016.5
20260502105956 0 0 0.0 0.0 0.00 0.00 0.00 82 1016.5
20260502104756 0 0 0.0 0.0 0.00 0.00 0.00 82 1016.6
20260502103556 0 0 0.0 0.0 0.00 0.00 0.00 82 1016.7
20260502102355 0 0 0.0 0.0 0.00 0.00 0.00 81 1016.7
20260502101156 1 0 0.0 0.0 0.00 0.00 0.00 81 1016.7
20260502091156 1 0 0.0 0.0 0.00 0.00 0.00 80 1016.9
20260502071155 3 0 0.0 0.0 0.00 0.00 0.00 76 1018.0
20260502065956 3 0 0.0 0.0 0.00 0.00 0.00 76 1018.2
20260502063555 3 0 0.0 0.0 0.00 0.00 0.00 75 1018.1
20260502062356 3 0 0.0 0.0 0.00 0.00 0.00 76 1018.2
20260502061156 3 0 0.0 0.0 0.00 0.00 0.00 75 1018.1
20260502055958 4 0 0.0 0.0 0.00 0.00 0.00 72 1018.2
20260502053556 5 0 0.0 0.0 0.00 0.00 0.00 71 1018.3
20260502052356 5 0 0.0 0.0 0.00 0.00 0.00 72 1018.2
20260502051156 5 0 0.0 0.0 0.00 0.00 0.00 71 1018.3
20260502045956 5 0 0.0 0.0 0.00 0.00 0.00 71 1018.4
20260502044756 5 0 0.0 0.0 0.00 0.00 0.00 71 1018.4
20260502043556 5 0 0.0 0.0 0.00 0.00 0.00 70 1018.4
20260502042356 6 0 0.0 0.0 0.00 0.00 0.00 70 1018.5
20260502041156 6 0 0.0 0.0 0.00 0.00 0.00 69 1018.4
20260502034756 7 0 0.0 0.0 0.00 0.00 0.00 68 1018.4
20260502033556 7 0 0.0 0.0 0.00 0.00 0.00 68 1018.3
20260502032356 8 0 0.0 0.0 0.00 0.00 0.00 66 1018.2
20260502031157 8 0 0.0 0.0 0.00 0.00 0.00 66 1018.1
20260502025956 8 0 0.0 0.0 0.00 0.00 0.00 65 1018.2
20260502024756 9 0 0.0 0.0 0.00 0.00 0.00 61 1018.0
20260502023556 11 0 0.0 0.0 0.00 0.00 0.00 55 1017.8
20260502022356 13 0 0.0 0.0 0.00 0.00 0.00 49 1017.8
20260502021157 16 0 0.0 0.0 0.00 0.00 0.00 42 1017.8
20260502014756 18 0 0.0 0.0 0.00 0.00 0.00 33 1017.6
20260502013556 19 0 0.0 0.0 0.00 0.00 0.00 32 1017.6
20260502012356 19 0 0.0 0.0 0.00 0.00 0.00 30 1017.6
20260502005956 20 0 0.0 0.0 0.00 0.00 0.00 28 1017.6
20260502004756 20 347 0.0 8.0 0.00 0.00 0.00 28 1017.6
20260502003556 20 334 1.6 9.7 0.00 0.00 0.00 28 1017.5
20260501235957 20 357 1.6 11.3 0.00 0.00 0.00 28 1017.5
20260501234757 20 330 3.2 12.9 0.00 0.00 0.00 27 1017.6
20260501233556 20 25 4.8 16.1 0.00 0.00 0.00 29 1017.6
20260501232356 19 44 4.8 12.9 0.00 0.00 0.00 30 1017.5
20260501231157 20 333 3.2 11.3 0.00 0.00 0.00 29 1017.5
20260501224756 20 349 3.2 12.9 0.00 0.00 0.00 29 1017.7
20260501223556 20 12 3.2 12.9 0.00 0.00 0.00 29 1017.8
20260501222356 20 347 6.4 20.9 0.00 0.00 0.00 28 1017.8
20260501221157 20 7 3.2 12.9 0.00 0.00 0.00 28 1017.8
20260501215957 20 355 4.8 22.5 0.00 0.00 0.00 29 1017.8
20260501214757 20 8 4.8 17.7 0.00 0.00 0.00 28 1018.0
20260501213556 21 326 4.8 16.1 0.00 0.00 0.00 29 1018.1
20260501212357 21 321 4.8 19.3 0.00 0.00 0.00 28 1018.0
20260501211156 21 340 3.2 14.5 0.00 0.00 0.00 29 1018.4
20260501202357 20 316 4.8 17.7 0.00 0.00 0.00 30 1018.4
20260501194756 20 308 4.8 19.3 0.00 0.00 0.00 30 1018.5
20260501192356 19 338 6.4 25.7 0.00 0.00 0.00 32 1018.8
20260501191157 18 324 6.4 17.7 0.00 0.00 0.00 31 1018.8
20260501184757 18 331 8.0 24.1 0.00 0.00 0.00 34 1018.8
20260501183556 18 324 8.0 20.9 0.00 0.00 0.00 32 1018.6
20260501182356 18 324 8.0 24.1 0.00 0.00 0.00 35 1018.8
20260501181157 18 315 9.7 20.9 0.00 0.00 0.00 33 1018.8
20260501175957 18 315 8.0 24.1 0.00 0.00 0.00 32 1018.8
20260501174757 18 348 6.4 20.9 0.00 0.00 0.00 33 1018.8
20260501173557 18 325 8.0 19.3 0.00 0.00 0.00 33 1018.9
20260501172357 17 317 8.0 25.7 0.00 0.00 0.00 36 1019.0
20260501171157 17 318 8.0 22.5 0.00 0.00 0.00 34 1019.1
20260501165957 17 327 9.7 25.7 0.00 0.00 0.00 32 1019.1
20260501164757 17 333 6.4 16.1 0.00 0.00 0.00 34 1019.2
20260501163557 17 347 4.8 22.5 0.00 0.00 0.00 37 1018.8
20260501162356 16 343 6.4 20.9 0.00 0.00 0.00 38 1018.9